Location: Unspecified
(51.6250°N, 0.8230°E)
Time: 17:27:54
(UTC+00:00)

Intercosmos 25 - Visible Passes

Search period start: 27 January 2021 00:00
Search period end: 06 February 2021 00:00
Orbit: 438 x 2877 km, 82.6° (Epoch: 27 January)

Date Brightness Start Highest point End Pass type
(mag) Time Alt. Az. Time Alt. Az. Time Alt. Az.
27 Jan 7.2 17:45:44 10° WSW 17:54:05 23° WNW 18:00:07 10° N visible
28 Jan 7.1 17:40:41 10° WSW 17:48:38 22° WNW 17:54:25 10° NNW visible
29 Jan 7.1 17:35:37 10° WSW 17:43:11 21° WNW 17:48:42 10° NNW visible
30 Jan 7.1 17:30:33 10° WSW 17:37:42 20° WNW 17:42:59 10° NNW visible
31 Jan 7.1 17:25:30 10° WSW 17:32:14 19° WNW 17:37:15 10° NNW visible
01 Feb 7.0 17:20:26 10° WSW 17:26:45 18° WNW 17:31:31 10° NNW visible
02 Feb 7.0 17:15:23 10° W 17:21:17 18° WNW 17:25:46 10° NNW visible
